www.pogodaiklimat.ru

Погода и климат >> Архив погоды >> Россия >> Кемеровская область >> Мариинск


ПОГОДА в Мариинске

  • Прогноз погоды в Мариинске
  • Монитор погоды в Мариинске

АРХИВ ПОГОДЫ в Мариинске

Время (UTC), дата Ветер
(напр.,м/с)
 
Видим.   Явления Облачность Т
(С)
Тd
(С)
f
(%)
Тe
(С)
Тes
(С)
Комфортность P
(гПа)
Po
(гПа)
Тmin
(С)
Tmax
(С)
R
(мм)
R24
(мм)
S
(см)
21 8.09 штиль 0 20 км ясно +3.5 +3.1 97 +2 +2 1015.1 997.3
00 9.09 штиль 0 4000 м дымка 4/0
[Ci sp]
+2.4 +2.1 98 +1 +1 1014.9 997.0 +2.4
03 9.09 ЮВ 1 50 км 4/0
[Ci sp]
+10.0 +7.4 84 +10 +14 1013.9 996.5
06 9.09 штиль 0 50 км 6/0
[Ac trans Ci sp]
+16.6 +8.1 57 +17 +26 1012.2 995.2
09 9.09 СВ 1 50 км 8/3 1000 м
[Cu hum Ci fib]
+18.8 +7.3 47 +20 +24 1011.0 994.2
12 9.09 штиль 0 50 км 9/3 600 м
[Cb calv Ci fib]
+15.9 +9.5 66 +16 +16 1010.8 993.8 +19.3
15 9.09 штиль 0 20 км 3/0
[Ci fib]
+11.4 +9.0 85 +11 +11 1010.9 993.6
18 9.09 ЮЗ 2 20 км 5/0
[Ci fib]
+9.3 +8.2 93 +7 +7 1010.7 993.3
21 9.09 штиль 0 20 км ясно +7.4 +7.1 98 +6 +6 1010.3 992.8
00 10.09 З 1 20 км 10/6 600 м
[Cb calv Ci sp]
+8.0 +7.8 99 +7 +7 1011.0 993.6 +6.4
03 10.09 З 2 50 км 10/8 600 м
[Cb calv Ci sp]
+10.8 +9.2 90 +9 +10 1011.8 994.5
06 10.09 С 3 50 км 10/3 600 м
[Cb calv Ac trans Ci fib]
+17.0 +8.8 58 +17 +19 1011.6 994.7
09 10.09 З 5
{11}
20 км в посл. час ливневой дождь 9/9 600 м
[Cb calv]
+14.3 +9.1 71 +13 +13 1012.0 995.0
12 10.09 З 2 20 км {ливн. осадки} 10/9 600 м
[Cb calv Ci sp]
+13.6 +12.0 90 +13 +13 1013.3 996.2 +18.3 0.4
15 10.09 З 2 20 км {ливн. осадки} 10/8 600 м
[Cb calv Ci sp]
+11.8 +11.1 95 +11 +11 1014.2 997.0
18 10.09 штиль 0 20 км {ливн. осадки} 10/10 600 м
[Cb calv]
+10.8 +9.8 94 +10 +10 1014.2 996.9
21 10.09 штиль 0 20 км 10/10 600 м
[Cb calv]
+9.8 +9.4 97 +9 +9 1013.3 995.9
00 11.09 штиль 0 10 км слаб. ливневой дождь 10/10 600 м
[Cb calv]
+8.7 +8.4 98 +8 +8 1012.8 995.3 +8.7 2
03 11.09 СЗ 3 10 км слаб. ливневой дождь 10/10 600 м
[Cb calv]
+7.1 +6.6 97 +4 +4 1013.2 995.6 +6.9
06 11.09 штиль 0 50 км в посл. час ливневой дождь 10/8 600 м
[Cb calv Ci sp]
+9.9 +7.5 85 +9 +11 1012.6 995.2
09 11.09 штиль 0 10 км слаб. ливневой дождь 10/10 600 м
[Cb calv]
+9.4 +7.5 88 +9 +9 1012.5 995.1
12 11.09 З 2
{10}
20 км {ливн. осадки} 10/6 600 м
[Cb calv Ci sp]
+8.2 +7.2 93 +6 +6 1014.2 996.7 +11.3 5
15 11.09 З 2 20 км 8/4 600 м
[Cb calv Ac trans]
+6.3 +5.6 95 +4 +4 1016.0 998.3
18 11.09 З 2 20 км 10/6 600 м
[Cb calv Ci sp]
+5.9 +5.0 94 +3 +3 1017.7 999.9
21 11.09 СЗ 5 20 км 10/8 600 м
[Cb calv Ci sp]
+5.6 +3.6 87 +1 +1 1019.3 1001.6
00 12.09 З 2 20 км 10/4 600 м
[Cb calv Ci fib]
+2.1 +0.6 90 -1 -1 1021.6 1003.5 +2.0
03 12.09 З 5 50 км 10/8 600 м
[Cb calv Ci sp]
+4.7 +0.9 76 0 0 1022.4 1004.5
06 12.09 З 5 50 км 10/10 600 м
[Cb calv]
+6.7 +0.3 64 +3 +3 1022.1 1004.3
09 12.09 З 5
{10}
50 км 10/10 600 м
[Cb calv]
+7.6 +0.4 60 +4 +4 1020.8 1003.1
12 12.09 З 5
{11}
20 км 10/6 600 м
[Cb calv Ci sp]
+6.9 +1.1 67 +3 +3 1019.8 1002.1 +8.2
15 12.09 ЮЗ 5 10 км слаб. ливневой дождь 10/8 600 м
[Cb calv Ci sp]
+6.0 +4.2 88 +2 +2 1019.0 1001.2
18 12.09 ЮЗ 6-10
{10}
10 км слаб. ливневой дождь 10/10 600 м
[Cb calv]
+6.0 +4.7 91 +1 +1 1016.3 998.6
21 12.09 ЮЗ 6-10
{11}
10 км слаб. ливневой дождь 10/10 600 м
[Cb calv]
+5.8 +4.9 94 +1 +1 1014.3 996.6
00 13.09 З 4
{10}
10 км слаб. ливневой дождь 10/10 600 м
[Cb calv]
+5.8 +5.2 96 +2 +2 1014.2 996.5 +5.7 7
03 13.09 СВ 3 50 км в посл. час ливневой дождь 10/10 600 м
[Cb calv]
+4.9 +3.7 92 +1 +1 1015.2 997.4 +4.9
06 13.09 С 1 50 км {ливн. осадки} 10/6 600 м
[Cb calv Ci fib]
+7.7 +1.0 63 +7 +10 1014.9 997.3
09 13.09 З 3 50 км 10/3 600 м
[Cb calv Ci fib]
+9.5 -1.9 45 +8 +10 1014.6 997.1
12 13.09 СЗ 2 20 км 6/0
[Ci fib]
+7.8 -2.8 47 +6 +6 1015.3 997.7 +10.4 2
15 13.09 штиль 0 20 км ясно +0.5 -2.1 83 -1 -1 1017.4 999.3
18 13.09 З 2 20 км 1/1 600 м
[Sc]
-0.9 -2.1 92 -5 -5 1018.9 1000.7
21 13.09 ЮЗ 1 20 км 1/0
[Ci fib]
-1.4 -2.4 93 -4 -4 1019.4 1001.2
00 14.09 штиль 0 20 км 6/0
[Ac trans Ci fib]
-2.0 -2.8 94 -3 -3 1020.2 1001.9 -2.1
03 14.09 штиль 0 50 км 10/3 600 м
[Cb calv Ci sp]
+3.2 +1.0 85 +2 +5 1020.4 1002.5
06 14.09 ЮЗ 5 50 км 10/5 600 м
[Cb calv As trans]
+6.8 +0.1 62 +3 +4 1019.9 1002.2
09 14.09 ЮЗ 3 10 км слаб. ливневой дождь 10/10 600 м
[Cb calv]
+6.7 +3.0 77 +4 +4 1018.6 1000.9
12 14.09 ЮВ 2 10 км слаб. ливневой дождь 10/10 600 м
[Cb calv]
+6.4 +3.4 81 +4 +4 1016.6 998.9 +7.2 1
15 14.09 Ю 1 10 км слаб. ливневой дождь 10/10 600 м
[Cb calv]
+6.9 +5.2 89 +6 +6 1015.9 998.3
18 14.09 ЮЗ 3 10 км слаб. ливневой дождь 10/10 600 м
[Cb calv]
+7.8 +6.9 94 +5 +5 1014.3 996.7
21 14.09 ЮЗ 4 20 км {ливн. осадки} 10/10 600 м
[Cb calv]
+9.2 +8.4 95 +6 +6 1012.7 995.3
00 15.09 ЮЗ 4 20 км {ливн. осадки} 10/10 600 м
[Cb calv]
+9.7 +9.1 96 +7 +7 1012.6 995.2 +6.3 3
03 15.09 З 3 20 км в посл. час ливневой дождь 10/10 600 м
[Cb calv]
+10.5 +10.0 97 +8 +8 1012.9 995.6
06 15.09 З 4 50 км {ливн. осадки} 10/10 600 м
[Cb calv]
+11.5 +10.6 94 +9 +9 1013.3 996.0
09 15.09 З 2 10 км слаб. ливневой дождь 10/8 600 м
[Cb calv Ci sp]
+12.3 +11.1 92 +11 +12 1013.5 996.3
12 15.09 З 2 10 км слаб. ливневой дождь 10/10 600 м
[Cb calv]
+11.4 +10.9 97 +10 +10 1014.1 996.8 +12.6 1
15 15.09 штиль 0 2000 м дымка {ливн. осадки} 10/4 600 м
[Cb calv Ac trans Ci sp]
+10.3 +10.0 98 +9 +9 1015.4 998.0
18 15.09 З 2 20 км {ливн. осадки, морось} 10/10 600 м
[Cb calv]
+10.4 +10.2 99 +9 +9 1016.4 999.0

 

Местоположение метеостанции Мариинск (Кемеровская область, Россия): широта 56.18 долгота 87.68 высота над уровнем моря 144 м.

В архиве по умолчанию представлена погода в Мариинске за последнюю неделю. Архивные данные за месяц целиком и за предыдущие месяцы, начиная с января 2011 года, Вы можете получить, выбрав интересующий диапазон дат из раскрывающегося списка и нажав кнопку "Ввод!".


*Определитесь, кто Вы:
робот инопланетянин человек

Внимание! Время в таблицах - всемирное. Для получения местного времени необходимо прибавить поправку, которая равна 7 ч.

Смотрите также архив погоды в соседних городах и на ближайших метеорологических станциях:

Погода в Тяжине (Кемеровская область, Россия) (52 км)
Погода в Тисуле (Кемеровская область, Россия) (61 км)
Погода в Яе (Кемеровская область, Россия) (75 км)
Погода в Барзасе (Кемеровская область, Россия) (103 км)
Погода в Тюхтете (Красноярский край, Россия) (108 км)
Погода в Центральном Руднике (Кемеровская область, Россия) (109 км)
Погода в Боготоле (Красноярский край, Россия) (118 км)
Погода в Шарыпово (Красноярский край, Россия) (119 км)
Погода в Кемерово АМС (Кемеровская область, Россия) (127 км)
Погода в Тегульдете (Томская область, Россия) (128 км)

Пояснения к столбцам:

Ветер - указаны скорость ветра в м/с - средняя за 10 мин, порывы в срок и между сроками (в фигурных скобках) и направление, откуда дует ветер: С - северный, СВ - северо-восточный, В - восточный, ЮВ - юго-восточный, Ю - южный, ЮЗ - юго-западный, З - западный, СЗ - северо-западный.
Видимость - горизонтальная дальность видимости в метрах или километрах. При видимости от 1 до 10 км при отсутствии осадков обычно наблюдается дымка, при ухудшении видимости до 1 км и менее - туман. В сухую погоду видимость может ухудшаться дымом, пылью или мглою.
Явления - указаны атмосферные явления, наблюдавшиеся в срок или в последний час перед сроком; фигурными скобками обозначены явления, наблюдавшиеся между сроками (за 1-3 часа до срока); квадратными скобками обозначены град или гололедные отложения с указанием их диаметра в мм.
Облачность - указаны через наклонную черту общая и нижняя облачность в баллах и высота нижней границы облаков в метрах; квадратными скобками обозначены формы облаков: Ci - перистые, Cs - перисто-слоистые, Cc - перисто-кучевые, Ac - высококучевые, As - высокослоистые, Sc - слоисто-кучевые, Ns - слоисто-дождевые, Cu - кучевые, Cb - кучево-дождевые. Подробнее классификацию облаков см. в Атласе облаков (PDF).
T - Температура воздуха - температура, измеренная на высоте 2 м над землей.
Td - Температура точки росы - температура, при понижении до которой содержащийся в воздухе водяной пар достигнет насыщения.
f - Относительная влажность воздуха - влажноcть воздуха, измеренная на высоте 2 м над землей.
Te - Эффективная температура - температура, которую ощущает одетый по сезону человек в тени. Характеристика душности погоды. При расчете учитывается влияние влажности воздуха и скорости ветра на теплоощущения человека.
Tes - Эффективная температура на солнце - температура, которую ощущает человек, с поправкой на солнечный нагрев. Характеристика знойности погоды. Зависит от высоты солнца над горизонтом, облачности и скорости ветра. Ночью, в пасмурную погоду, а также при ветре 12 м/с и более поправка равна нулю.
P - Атмосферное давление - приведенное к уровню моря атмосферное давление.
Po - Атмосферное давление - измеренное на уровне метеостанции атмосферное давление.
Tmin - Минимальная температура - минимум температуры воздуха на высоте 2 м над землей.
Tmax - Максимальная температура - максимум температуры воздуха на высоте 2 м над землей.
R - Количество осадков - Количество выпавших осадков за период времени, мм. При наведении курсора мыши на число - период времени, за который выпало указанное количество осадков.
R24 - Количество осадков - Количество выпавших осадков за 24 часа, мм.
S - Снежный покров - Высота снежного покрова, см. При наведении курсора мыши на число - состояние снежного покрова и степень покрытия местности в баллах.